Погода в Троянове

Россия / Калужская область     54°59′06″N   36°55′27″E
В апреле 2022 года жителям России запретили посещать сайт meteo.paraplan.net по решению Генеральной прокуратуры. Аудитория сайта уменьшилась в 10 раз. Владельцы сайта не видят смысла в поддержке погодного сервера в таких условиях. Сайт будет закрыт в октябре.
темп.,
°C
ветер,
м/с
пор.,
м/с
влажн.,
%
обл.,
%
осадки,
мм/ч
давл.,
гПа
погр.,
м
30 сентября, пт
пт3000:00+8ю2494100 0.0 101486
03:00+7ююв289595 0.0 1015154
06:00+7ююв2896100 0.0 1015174
09:00+11ююв31086100 0.0 1015333
12:00+16ю4775100 0.0 1014693
15:00+15ю468282 0.1 1015723
18:00+13ю2491100 0.0 1016119
21:00+13ю2597100 0.0 1016203
1 октября, сб
сб100:00+12ююз1297100 0.0 101649
03:00+12сз1197100 0.0 101615
06:00+12в1198100 0.1 101637
09:00+13юв1293100 0.1 1015156
12:00+15юв2384100 0.0 1013356
15:00+16юв258684 0.6 1011212
18:00+14ююв2792100 1.7 1009125
21:00+14ююз41191100 3.0 1007616
2 октября, вс
вс200:00+12юз51187100 0.1 1008794
03:00+9юз51180100 0.1 10081208
06:00+9зюз51086100 0.0 1008948
09:00+9зюз4108227 0.1 1009801
12:00+12зюз4665100 0.0 10091166
15:00+12з2365100 0.0 10081010
18:00+9ссв2281100 0.0 100836
21:00+9св3785100 0.1 1006270
3 октября, пн
пн300:00+8св51294100 3.8 1003578
03:00+8св51297100 11.1 998484
06:00+10всв3999100 3.6 995346
09:00+14юв41197100 8.9 993612
12:00+13ююз3798100 6.7 992444
15:00+9юз4894100 8.7 995584
18:00+7юз5992100 0.1 999868
21:00+7юз4891100 0.3 10021132
4 октября, вт
вт400:00+6ююз4893100 2.1 10041109
03:00+6юз41092100 3.6 1006904
06:00+6ю4119499 0.0 1008488
09:00+7ю4119037 0.0 1010491
12:00+11ююз597770 0.0 1011718
15:00+11ююз497878 0.7 10121011
18:00+9ю4108881 0.4 1014587
21:00+8ю41193100 0.6 1015563